This is the latest recevied weather packets stored in our database for station/object AI9F. If no packets are shown the sender has not sent any weather packets the latest 10 day(s).
| Time | Temp. | Humidity | Pressure | Rain* | Wind** | Luminosity | Snow |
|---|---|---|---|---|---|---|---|
| 1777908807 | 20.56° C | 64% | 1008.6 hPa | 0 mm | - | 251 W/m² | - |
| 1777908503 | 20.56° C | 63% | 1008.4 hPa | 0 mm | - | 246 W/m² | - |
| 1777908201 | 20.56° C | 62% | 1008.3 hPa | 0 mm | - | 236 W/m² | - |
| 1777907896 | 20.56° C | 65% | 1008.3 hPa | 0 mm | - | 211 W/m² | - |
| 1777907592 | 20° C | 68% | 1008.2 hPa | 0 mm | - | 211 W/m² | - |
| 1777907288 | 20.56° C | 65% | 1008.3 hPa | 0 mm | - | 234 W/m² | - |
| 1777906985 | 20° C | 64% | 1008.3 hPa | 0 mm | - | 178 W/m² | - |
| 1777906683 | 20° C | 64% | 1008.3 hPa | 0 mm | - | 162 W/m² | - |
| 1777906379 | 18.89° C | 68% | 1008.5 hPa | 0 mm | - | 139 W/m² | - |
| 1777906075 | 18.89° C | 67% | 1008.3 hPa | 0 mm | - | 142 W/m² | - |
| 1777905772 | 18.89° C | 71% | 1008.4 hPa | 0 mm | - | 145 W/m² | - |
| 1777905469 | 18.89° C | 69% | 1008.3 hPa | 0 mm | - | 164 W/m² | - |
| 1777905166 | 18.33° C | 69% | 1008.4 hPa | 0 mm | - | 186 W/m² | - |
| 1777904863 | 18.33° C | 70% | 1008.5 hPa | 0 mm | - | 190 W/m² | - |
| 1777904561 | 17.78° C | 70% | 1008.7 hPa | 0 mm | - | 181 W/m² | - |
| 1777904258 | 17.78° C | 73% | 1008.5 hPa | 0 mm | - | 143 W/m² | - |
| 1777903955 | 17.78° C | 75% | 1008.5 hPa | 0 mm | - | 172 W/m² | - |
| 1777903651 | 17.22° C | 72% | 1008.4 hPa | 0 mm | - | 139 W/m² | - |
| 1777903347 | 17.22° C | 74% | 1008.6 hPa | 0 mm | - | 127 W/m² | - |
| 1777903044 | 17.22° C | 73% | 1008.7 hPa | 0 mm | - | 142 W/m² | - |
| 1777902740 | 17.22° C | 75% | 1008.9 hPa | 0 mm | - | 161 W/m² | - |
| 1777902438 | 17.22° C | 75% | 1008.8 hPa | 0 mm | - | 114 W/m² | - |
| 1777902134 | 17.22° C | 73% | 1009.1 hPa | 0 mm | - | 84 W/m² | - |
| 1777901833 | 17.22° C | 74% | 1009 hPa | 0 mm | - | 102 W/m² | - |
| 1777901530 | 17.78° C | 74% | 1008.9 hPa | 0 mm | - | 124 W/m² | - |
* Rain latest hour (hover to see other rain measurements)
** Current wind speed in m/s (hover to see current wind gust speed)